Weather History for KMQY - June, 2013

Change the Weather History Date:

Thursday, June 27, 2013

  Actual Average Record
Temperature  
Mean Temperature 84 °F -  
Max Temperature 95 °F 84 °F 99 °F (2012)
Min Temperature 72 °F 68 °F 55 °F (2012)
Cooling Degree Days 18    
Growing Degree Days 34 (Base 50)    
Moisture  
Dew Point 71 °F    
Average Humidity 69    
Maximum Humidity 88    
Minimum Humidity 45    
Precipitation  
Precipitation 0.00 in - - ()
Sea Level Pressure  
Sea Level Pressure 29.87 in    
Wind  
Wind Speed 10 mph (WNW)    
Max Wind Speed 22 mph    
Max Gust Speed 29 mph    
Visibility 10 miles    
Events Rain , Thunderstorm    
Averages and records for this station are not official NWS values.
T = Trace of Precipitation, MM = Missing Value Source: NWS Daily Summary

Daily Weather History Graph

Daily Weather History Graph

Search for Another Location

Airport or City:

Trip Planner

Search our weather history database for the weather conditions in past years. The results will help you decide how hot, cold, wet, or windy it might be!

Date:

Astronomy

Jun. 27, 2013 Rise Set
Actual Time 5:31 AM CDT 8:06 PM CDT
Civil Twilight 5:01 AM CDT 8:37 PM CDT
Nautical Twilight 4:23 AM CDT 9:14 PM CDT
Astronomical Twilight 3:41 AM CDT 9:56 PM CDT
Moon 11:14 PM CDT (6/27) 10:22 AM CDT (6/27)
Length of Visible Light 15h 35m
Length of Day
14h 35m
Waning Gibbous, 76% of the Moon is Illuminated
Jun 27
Waning Gibbous
Jun 29
Last Quarter
Jul 8
New
Jul 15
First Quarter
Jul 22
Full

Hourly Weather History & Observations

Time (CDT) Temp. Heat Index Dew Point Humidity Pressure Visibility Wind Dir Wind Speed Gust Speed Precip Events Conditions
12:56 AM 81.9 °F 86.6 °F 72.0 °F 72% 29.92 in 10.0 mi West 21.9 mph 28.8 mph 0.00 in Rain Light Rain
1:56 AM 73.9 °F - 68.0 °F 82% 29.89 in 10.0 mi WSW 6.9 mph - 0.00 in   Clear
2:03 AM 73.4 °F - 68.0 °F 83% 29.88 in 10.0 mi West 5.8 mph - N/A Thunderstorm Clear
2:56 AM 74.8 °F - 68.0 °F 79% 29.87 in 10.0 mi West 6.9 mph - N/A Thunderstorm Thunderstorm
3:16 AM 75.2 °F - 69.8 °F 83% 29.85 in 10.0 mi WSW 5.8 mph - N/A   Partly Cloudy
3:56 AM 74.8 °F - 68.9 °F 82% 29.87 in 10.0 mi West 9.2 mph - N/A Thunderstorm Thunderstorm
4:13 AM 75.2 °F - 69.8 °F 83% 29.87 in 10.0 mi West 4.6 mph - N/A   Clear
4:56 AM 75.9 °F - 68.0 °F 76% 29.88 in 10.0 mi WSW 8.1 mph - N/A   Clear
5:56 AM 72.9 °F - 68.9 °F 87% 29.88 in 10.0 mi Calm Calm - N/A   Clear
6:22 AM 73.4 °F - 69.8 °F 88% 29.87 in 10.0 mi Calm Calm - N/A Thunderstorm Clear
6:56 AM 77.0 °F - 70.9 °F 81% 29.89 in 10.0 mi Calm Calm - N/A Thunderstorm Clear
6:59 AM 77.0 °F - 71.6 °F 83% 29.88 in 10.0 mi Calm Calm - N/A   Clear
7:56 AM 79.0 °F - 72.0 °F 79% 29.90 in 10.0 mi Variable 4.6 mph - N/A   Scattered Clouds
8:56 AM 81.9 °F 87.7 °F 73.9 °F 77% 29.90 in 10.0 mi WSW 10.4 mph - N/A   Mostly Cloudy
9:56 AM 83.8 °F 92.5 °F 75.9 °F 77% 29.90 in 10.0 mi West 6.9 mph - N/A   Overcast
10:56 AM 88.0 °F 98.5 °F 75.9 °F 67% 29.89 in 10.0 mi WNW 10.4 mph - N/A   Mostly Cloudy
11:56 AM 90.9 °F 101.2 °F 74.8 °F 59% 29.88 in 10.0 mi North 12.7 mph - N/A   Mostly Cloudy
11:59 AM 91.4 °F 102.5 °F 75.2 °F 59% 29.87 in 10.0 mi North 13.8 mph - N/A   Scattered Clouds
12:56 PM 92.8 °F 102.8 °F 73.9 °F 54% 29.87 in 10.0 mi NNW 13.8 mph - N/A   Scattered Clouds
1:56 PM 93.9 °F 102.7 °F 72.9 °F 50% 29.87 in 10.0 mi NNW 12.7 mph - N/A   Scattered Clouds
2:56 PM 95.0 °F 103.2 °F 72.0 °F 47% 29.86 in 10.0 mi NW 12.7 mph 18.4 mph N/A   Scattered Clouds
3:56 PM 93.9 °F 100.8 °F 70.9 °F 47% 29.86 in 10.0 mi WNW 15.0 mph - N/A   Scattered Clouds
4:56 PM 93.9 °F 100.8 °F 70.9 °F 47% 29.86 in 10.0 mi NW 15.0 mph - N/A   Clear
5:56 PM 92.8 °F 97.6 °F 68.9 °F 45% 29.85 in 10.0 mi NW 11.5 mph 19.6 mph N/A   Partly Cloudy
6:56 PM 90.9 °F 96.2 °F 70.0 °F 50% 29.85 in 10.0 mi NW 10.4 mph - N/A   Clear
7:56 PM 86.0 °F 91.1 °F 70.9 °F 60% 29.85 in 10.0 mi NW 5.8 mph - N/A   Clear
8:56 PM 82.9 °F 87.5 °F 70.9 °F 67% 29.87 in 10.0 mi WNW 8.1 mph - N/A   Clear
9:56 PM 82.9 °F 87.0 °F 70.0 °F 65% 29.87 in 10.0 mi West 6.9 mph - N/A   Clear
10:56 PM 77.0 °F - 70.0 °F 79% 29.85 in 10.0 mi South 3.5 mph - N/A   Clear
11:56 PM 77.9 °F - 70.0 °F 76% 29.85 in 10.0 mi Calm Calm - N/A   Clear